Regional Weather Roundup
Issued by NWS Charleston, WV

Home | Current Version | Previous Version | Text Only | Print | Product List | Glossary On
Versions: 1 2 3 4 5 6 7 8 9 10 11 12 13 14 15 16 17 18 19 20 21 22 23 24 25 26 27 28 29 30 31 32 33 34 35 36 37 38 39 40 41 42 43 44 45 46 47 48 49 50
079
ASUS41 KRLX 060910
RWRRLX
West Virginia Regional Weather Roundup
National Weather Service Charleston WV
500 AM EDT FRI MAY 06 2016

Note: "fair" indicates few or no clouds below 12,000 feet with no
significant weather and/or obstructions to visibility.

WVZ003-061000-
Northern Panhandle of West Virginia

CITY           SKY/WX    TMP DP  RH WIND       PRES   REMARKS
WHEELING       CLOUDY    49  43  80 N9        29.80R
$$

WVZ009-061000-
Northwest West Virginia

CITY           SKY/WX    TMP DP  RH WIND       PRES   REMARKS
PARKERSBURG    MOCLDY    49  43  80 VRB6      29.84R
$$

WVZ006-061000-
Western West Virginia

CITY           SKY/WX    TMP DP  RH WIND       PRES   REMARKS
HUNTINGTON     CLOUDY    50  43  77 W3        29.83S
$$

WVZ015-061000-
West Central West Virginia

CITY           SKY/WX    TMP DP  RH WIND       PRES   REMARKS
CHARLESTON     CLOUDY    50  45  83 W3        29.80R
$$

WVZ022-031-061000-
North Central West Virginia

CITY           SKY/WX    TMP DP  RH WIND       PRES   REMARKS
CLARKSBURG     CLOUDY    48  45  89 NW3       29.76R
MORGANTOWN     CLOUDY    49  43  80 N6        29.77S
$$

WVZ025-035-042-045-061000-
Southern West Virginia

CITY           SKY/WX    TMP DP  RH WIND       PRES   REMARKS
BECKLEY        CLOUDY    45  44  97 NW10      29.76S FOG
LOGAN          NOT AVBL
BLUEFIELD      LGT RAIN  44  42  93 W9        29.77S
LEWISBURG      CLOUDY    46  43  89 W3        29.73S
$$

WVZ047-061000-
Northern Mountains of West Virginia

CITY           SKY/WX    TMP DP  RH WIND       PRES   REMARKS
ELKINS         LGT RAIN  47  44  90 NW5       29.74S
$$

WVZ052-061000-
Eastern Panhandle of West Virginia

CITY           SKY/WX    TMP DP  RH WIND       PRES   REMARKS
MARTINSBURG    CLOUDY    51  48  89 NW8       29.68S
PETERSBURG     CLOUDY    51  49  92 CALM      29.73S
$$




USA.gov is the U.S. government's official web portal to all federal, state and local government web resources and services.